Find Starlink 30944

NORAD ID: 58451 Int'l Des: 2023-183 Owner: SPXS Country: US Constellation: starlink operational
LEOCIRCULAR

現在のビュー

3D地球を読み込み中...

About Starlink 30944

Starlink 30944 (NORAD 58451) is a starlink constellation satellite (v2 mini) launched Nov 28, 2023 by SPXS of US. It operates in LEO, CIRCULAR orbit with a mass of 730.00 kg.

Starlink 30944について

説明を読み込み中...

次回通過

Passes for default location (London). Set your location on the main map for personalized predictions.

高度履歴

Loading altitude history...

軌道要素

1 58451U 23183Q 26170.35080835 .00007759 00000-0 29118-3 0 9990
2 58451 42.9975 187.3559 0001201 275.6655 84.4059 15.27579674142256
Epoch: Jun 19, 2026 • Age: 25 hours

現在のステータス

高度 482.9 km
速度 7.63 km/s
衛星直下点 22.78°N, 154.24°E
打ち上げ日 Nov 28, 2023
運用期間 2.5 years
タイプ internet

技術仕様

分類 Payload
質量 730.00 kg
乾燥質量 700.00 kg
総質量 730.00 kg
長さ 0.30 m
直径 4.10 m
スパン 29.00 m
形状 Box + pan
製造者 SPXS
バスタイプ Starlink V2M
フェーズステータス In Orbit
所有者/国 SPXS/US

Most Searched